Weather History for LGRP - October, 2012

Change the Weather History Date:

Monday, October 8, 2012

  Actual Average Record
Temperature  
Mean Temperature 75 °F -  
Max Temperature 80 °F 74 °F 82 °F (1998)
Min Temperature 70 °F 60 °F 58 °F (2013)
Cooling Degree Days 10    
Growing Degree Days 25 (Base 50)    
Moisture  
Dew Point 67 °F    
Average Humidity 76    
Maximum Humidity 94    
Minimum Humidity 57    
Precipitation  
Precipitation 0.00 in 0.09 in - ()
Sea Level Pressure  
Sea Level Pressure 29.85 in    
Wind  
Wind Speed 9 mph ()    
Max Wind Speed 15 mph    
Max Gust Speed -    
Visibility 6.2 miles    
Events      
Averages and records for this station are not official NWS values.
T = Trace of Precipitation, MM = Missing Value Source: Averaged Metar Reports

Daily Weather History Graph

Daily Weather History Graph

Search for Another Location

Airport or City:

Trip Planner

Search our weather history database for the weather conditions in past years. The results will help you decide how hot, cold, wet, or windy it might be!

Date:

Astronomy

Oct. 08, 2012 Rise Set
Actual Time 7:08 AM EEST 6:40 PM EEST
Civil Twilight 6:43 AM EEST 7:06 PM EEST
Nautical Twilight 6:13 AM EEST 7:36 PM EEST
Astronomical Twilight 5:43 AM EEST 8:06 PM EEST
Moon No Moon Rise 2:06 PM EEST (10/8)
Length of Visible Light 12h 23m
Length of Day
11h 31m
Waning Gibbous, 49% of the Moon is Illuminated
Oct 8
Waning Gibbous
Oct 15
New
Oct 22
First Quarter
Oct 29
Full
Nov 7
Last Quarter

Hourly Weather History & Observations

Time (EEST) Temp. Heat Index Dew Point Humidity Pressure Visibility Wind Dir Wind Speed Gust Speed Precip Events Conditions
12:20 AM 71.6 °F - 68.0 °F 88% 29.89 in 6.2 mi SW 10.4 mph - N/A   Scattered Clouds
12:50 AM 71.6 °F - 68.0 °F 88% 29.89 in 6.2 mi SW 10.4 mph - N/A   Scattered Clouds
1:20 AM 71.6 °F - 68.0 °F 88% 29.89 in 6.2 mi SW 9.2 mph - N/A   Scattered Clouds
1:50 AM 71.6 °F - 68.0 °F 88% 29.89 in 6.2 mi SW 9.2 mph - N/A   Scattered Clouds
2:20 AM 71.6 °F - 68.0 °F 88% 29.89 in 6.2 mi SW 10.4 mph - N/A   Scattered Clouds
3:00 AM 72 °F - 66 °F 75% 29.88 in 6 mi SW 10.4 mph - -   Scattered Clouds
3:20 AM 71.6 °F - 62.6 °F 73% 29.86 in 6.2 mi SW 10.4 mph - N/A   Scattered Clouds
3:50 AM 71.6 °F - 66.2 °F 83% 29.86 in 6.2 mi SW 11.5 mph - N/A   Scattered Clouds
4:20 AM 71.6 °F - 66.2 °F 83% 29.86 in 6.2 mi SW 9.2 mph - N/A   Scattered Clouds
4:50 AM 71.6 °F - 66.2 °F 83% 29.86 in 6.2 mi SW 10.4 mph - N/A   Scattered Clouds
5:20 AM 71.6 °F - 66.2 °F 83% 29.86 in 6.2 mi SW 10.4 mph - N/A   Scattered Clouds
5:50 AM 69.8 °F - 66.2 °F 88% 29.86 in 6.2 mi SW 8.1 mph - N/A   Scattered Clouds
6:20 AM 69.8 °F - 66.2 °F 88% 29.86 in 6.2 mi SW 9.2 mph - N/A   Scattered Clouds
6:50 AM 69.8 °F - 68.0 °F 94% 29.86 in 6.2 mi WSW 6.9 mph - N/A   Scattered Clouds
7:20 AM 69.8 °F - 68.0 °F 94% 29.86 in 6.2 mi WSW 6.9 mph - N/A   Scattered Clouds
7:50 AM 71.6 °F - 68.0 °F 88% 29.86 in 6.2 mi SW 6.9 mph - N/A   Scattered Clouds
8:20 AM 71.6 °F - 68.0 °F 88% 29.86 in 6.2 mi SW 6.9 mph - N/A   Scattered Clouds
8:50 AM 73.4 °F - 66.2 °F 78% 29.86 in 6.2 mi SW 8.1 mph - N/A   Scattered Clouds
9:00 AM 74 °F - 66 °F 70% 29.87 in 6 mi SW 8.1 mph - -   Scattered Clouds
9:20 AM 73.4 °F - 66.2 °F 78% 29.86 in 6.2 mi WSW 10.4 mph - N/A   Scattered Clouds
9:50 AM 77.0 °F - 66.2 °F 69% 29.86 in 6.2 mi West 10.4 mph - N/A   Scattered Clouds
10:20 AM 77.0 °F - 66.2 °F 69% 29.86 in 6.2 mi WSW 10.4 mph - N/A   Scattered Clouds
10:50 AM 77.0 °F - 64.4 °F 65% 29.86 in 6.2 mi WSW 9.2 mph - N/A   Scattered Clouds
11:20 AM 77.0 °F - 64.4 °F 65% 29.86 in 6.2 mi WSW 11.5 mph - N/A   Scattered Clouds
11:50 AM 77.0 °F - 66.2 °F 69% 29.89 in 6.2 mi WSW 12.7 mph - N/A   Scattered Clouds
12:20 PM 77.0 °F - 66.2 °F 69% 29.89 in 6.2 mi WSW 11.5 mph - N/A   Scattered Clouds
12:50 PM 78.8 °F - 66.2 °F 65% 29.86 in 6.2 mi WSW 12.7 mph - N/A   Scattered Clouds
1:20 PM 78.8 °F - 66.2 °F 65% 29.86 in 6.2 mi WSW 13.8 mph - N/A   Scattered Clouds
1:50 PM 80.6 °F 82.7 °F 66.2 °F 61% 29.86 in 6.2 mi WSW 11.5 mph - N/A   Scattered Clouds
2:20 PM 80.6 °F 82.7 °F 66.2 °F 61% 29.86 in 6.2 mi WSW 11.5 mph - N/A   Scattered Clouds
2:50 PM 78.8 °F - 68.0 °F 69% 29.83 in 6.2 mi WSW 15.0 mph - N/A   Scattered Clouds
3:00 PM 80 °F - 67 °F 57% 29.86 in 6 mi WSW 15.0 mph - -   Partly Cloudy
3:20 PM 78.8 °F - 68.0 °F 69% 29.83 in 6.2 mi WSW 15.0 mph - N/A   Scattered Clouds
3:50 PM 77.0 °F - 68.0 °F 74% 29.83 in 6.2 mi WSW 11.5 mph - N/A   Mostly Cloudy
4:20 PM 77.0 °F - 68.0 °F 74% 29.83 in 6.2 mi WSW 11.5 mph - N/A   Mostly Cloudy
4:50 PM 77.0 °F - 66.2 °F 69% 29.83 in 6.2 mi WSW 10.4 mph - N/A   Mostly Cloudy
5:20 PM 77.0 °F - 66.2 °F 69% 29.83 in 6.2 mi WSW 10.4 mph - N/A   Mostly Cloudy
5:50 PM 77.0 °F - 66.2 °F 69% 29.83 in 6.2 mi WSW 10.4 mph - N/A   Mostly Cloudy
6:20 PM 77.0 °F - 66.2 °F 69% 29.83 in 6.2 mi WSW 10.4 mph - N/A   Mostly Cloudy
6:50 PM 75.2 °F - 66.2 °F 73% 29.83 in 6.2 mi SW 9.2 mph - N/A   Mostly Cloudy
7:20 PM 75.2 °F - 66.2 °F 73% 29.83 in 6.2 mi SW 9.2 mph - N/A   Mostly Cloudy
7:50 PM 75.2 °F - 66.2 °F 73% 29.83 in 6.2 mi SW 5.8 mph - N/A   Mostly Cloudy
8:20 PM 75.2 °F - 66.2 °F 73% 29.83 in 6.2 mi SW 5.8 mph - N/A   Mostly Cloudy
8:50 PM 73.4 °F - 66.2 °F 78% 29.83 in 6.2 mi SW 8.1 mph - N/A   Scattered Clouds
9:00 PM 73 °F - 67 °F 75% 29.84 in 6 mi SW 8.1 mph - -   Scattered Clouds
9:20 PM 73.4 °F - 66.2 °F 78% 29.83 in 6.2 mi SW 8.1 mph - N/A   Scattered Clouds
9:50 PM 73.4 °F - 66.2 °F 78% 29.83 in 6.2 mi SW 6.9 mph - N/A   Scattered Clouds
10:20 PM 73.4 °F - 66.2 °F 78% 29.83 in 6.2 mi SSW 5.8 mph - N/A   Scattered Clouds
10:50 PM 73.4 °F - 66.2 °F 78% 29.83 in 6.2 mi SSW 6.9 mph - N/A   Scattered Clouds
11:20 PM 73.4 °F - 66.2 °F 78% 29.83 in 6.2 mi SSW 5.8 mph - N/A   Scattered Clouds
11:50 PM 73.4 °F - 66.2 °F 78% 29.83 in 6.2 mi SSW 5.8 mph - N/A   Scattered Clouds